Date,TemperatureHighF,TemperatureAvgF,TemperatureLowF,DewpointHighF,DewpointAvgF,DewpointLowF,HumidityHigh,HumidityAvg,HumidityLow,PressureMaxIn,PressureMinIn,WindSpeedMaxMPH,WindSpeedAvgMPH,GustSpeedMaxMPH,PrecipitationSumIn
2013-3-1,39.5,37.1,34.6,36.6,33.6,31.9,97,87,77,29.63,29.45,16,8,37,0.00
2013-3-2,42.2,37.3,35.2,33.5,31.1,28.6,92,79,60,29.64,29.58,9,5,37,0.00
2013-3-3,39.3,36.1,34.3,34.3,31.6,30.3,94,84,73,29.59,29.53,7,4,37,0.00
2013-3-4,40.1,34.8,32.2,32.2,28.3,24.3,95,78,55,29.64,29.52,15,9,37,0.00
2013-3-5,41.5,36.9,34.0,38.0,33.3,28.2,97,87,78,30.01,29.65,13,8,37,0.05
2013-3-6,40.1,38.5,35.7,36.4,35.1,33.9,94,87,80,30.03,29.88,21,13,37,0.01
2013-3-7,37.9,35.9,34.5,36.2,35.2,34.0,99,97,89,29.87,29.79,24,20,43,0.51
2013-3-8,39.3,35.7,33.6,38.5,35.0,33.3,99,98,83,30.00,29.77,22,18,41,0.45
2013-3-9,38.7,37.0,35.9,33.6,32.6,31.4,88,84,79,30.27,30.00,18,13,37,0.00
2013-3-10,39.8,37.7,35.3,33.7,32.7,31.5,87,82,76,30.36,30.26,11,6,37,0.00
2013-3-11,44.6,39.5,35.8,40.4,36.4,32.2,95,89,81,30.32,30.17,13,7,37,0.00
2013-3-12,48.7,46.3,41.5,48.1,45.0,40.2,99,95,91,30.18,29.75,19,14,37,0.10
2013-3-13,51.3,45.1,40.2,49.1,38.9,24.0,99,80,49,29.75,29.66,20,7,37,0.77
2013-3-14,39.8,33.6,25.9,27.6,21.3,11.7,79,61,44,29.76,29.66,14,6,37,0.00
2013-3-15,38.0,30.2,22.9,28.6,16.8,9.9,73,58,35,29.83,29.64,16,11,37,0.00
2013-3-16,38.2,34.3,31.8,28.4,21.6,16.3,74,60,48,29.84,29.64,12,6,37,0.00
2013-3-17,37.3,32.7,26.9,27.4,20.2,12.2,92,61,42,30.26,29.83,13,5,37,0.00
2013-3-18,33.2,29.5,24.9,28.0,17.5,8.7,94,61,45,30.42,30.23,10,5,37,0.00
2013-3-19,43.8,36.7,30.1,43.5,36.0,27.6,99,97,90,30.23,29.45,21,14,37,0.25
2013-3-20,39.7,34.2,28.2,32.3,24.9,19.5,98,70,44,29.81,29.58,17,10,37,0.00
2013-3-21,40.1,35.6,29.5,33.1,30.1,26.7,97,81,61,29.81,29.53,13,6,37,0.00
2013-3-22,37.9,32.5,28.7,31.4,28.7,24.9,98,87,67,29.71,29.52,9,3,37,0.11
2013-3-23,42.8,36.1,29.2,25.8,22.9,19.2,79,60,40,29.73,29.60,15,9,37,0.00
2013-3-24,43.6,36.8,32.8,30.3,26.5,21.7,85,66,47,29.79,29.71,11,6,37,0.00
2013-3-25,43.8,37.8,31.3,36.0,31.6,27.9,92,79,62,29.73,29.40,15,8,37,0.00
2013-3-26,46.5,39.3,34.7,34.9,29.2,22.7,89,68,40,29.73,29.39,15,9,37,0.00
2013-3-27,51.1,42.0,32.5,36.8,30.8,26.3,90,66,39,29.80,29.71,10,5,37,0.00
2013-3-28,46.7,41.0,37.3,38.1,34.6,28.6,95,79,52,29.99,29.78,12,6,37,0.04
2013-3-29,53.6,44.5,37.6,39.6,35.7,33.1,85,72,54,30.01,29.96,10,4,37,0.00
2013-3-30,52.8,44.2,39.6,38.1,35.9,30.2,90,73,42,30.08,29.99,10,5,37,0.00
2013-3-31,49.3,43.2,34.1,42.5,37.9,30.6,96,82,63,30.11,29.77,19,6,37,0.02